User: anonymous   Login
Location: Unspecified
(0.0000°N, 0.0000°E)
Time: 20:40:31
(UTC+00:00)
Language:

FLTSATCOM F8 - Orbit

View from above orbital plane
View from above orbital plane
View from above satellite
View from above satellite

Ground track
Ground track

The orbit data is extracted from the following two-line orbital elements,

1 20253U 89077A   21136.63277582 -.00000073  00000-0  00000-0 0  9997
2 20253  12.9657   3.0081 0006681  70.9888 100.2267  1.00272969241985
Epoch (UTC): 16 May 2021 15:11:11
Eccentricity: 0.0006681
inclination: 12.9657°
perigee height: 35758 km
apogee height: 35814 km
right ascension of ascending node: 3.0081°
argument of perigee: 70.9888°
revolutions per day: 1.00272969
mean anomaly at epoch: 100.2267°
orbit number at epoch: 24198

The dashed part of the orbit path shows where the satellite is in the earth's shadow,  

DLR